User: anonymous   Login
Location: Darlington Observatory
(36.4817°N, 105.8156°W)
Time: 00:13:30
(UTC-06:00)
Language:

NOSS 3-3 (A) - Orbit

View from above orbital plane
View from above orbital plane
View from above satellite
View from above satellite

Ground track
Ground track

The orbit data is extracted from the following two-line orbital elements,

1 28537U 05004A   17080.92198095 0.00000000  00000-0  00000-0 0    06
2 28537  63.4254  50.8312 0260000 358.4306   1.5693 13.40727860    09
Epoch (UTC): 21 March 2017 22:07:39
Eccentricity: 0.0260000
inclination: 63.4254°
perigee height: 912 km
apogee height: 1301 km
right ascension of ascending node: 50.8312°
argument of perigee: 358.4306°
revolutions per day: 13.40727860
mean anomaly at epoch: 1.5693°
orbit number at epoch: 0

The dashed part of the orbit path shows where the satellite is in the earth's shadow,  

DLR